Home   Weather   Rathenow   Past weeks
Flag for Germany

Past Weather in Rathenow, Brandenburg, Germany — Yesterday and Last 2 Weeks

Now
57 °F

Clear.


Feels Like: 55 °F
Forecast: 66 / 53 °F
Wind: 9 mph from Southeast

Location: Berlin-Tegel

Current Time: Oct 19, 2019 at 7:28:28 pm

Latest Report: Oct 19, 2019 at 6:50 pm


Visibility: 10 mi

Pressure: 29.80 "Hg

Humidity: 82%

Dew Point: 52 °F

Location of RathenowLocation

Past Weather in Rathenow — Graph

°F

Rathenow Temperature Yesterday

Maximum temperature yesterday: 66 °F (at 12:50 pm)
Minimum temperature yesterday: 50 °F (at 11:20 pm)
Average temperature yesterday: 59 °F

High & Low Weather Summary for the Past Weeks

 TemperatureHumidityPressure
High75 °F (Oct 13, 1:50 pm)100% (Oct 4, 7:50 pm)30.18 "Hg (Oct 4, 7:50 pm)
Low30 °F (Oct 7, 5:50 am)44% (Oct 7, 2:20 pm)29.62 "Hg (Oct 16, 4:50 am)
Average55 °F80%29.86 "Hg
* Reported Oct 4 6:20 pm — Oct 19 6:20 pm, Rathenow. Weather by CustomWeather, © 2019

Note: Actual official high and low records may vary slightly from our data, if they occured in-between our weather recording intervals... More about our weather records

Advertising

Rathenow Weather History for the Previous 24 Hours

Scroll right to see more
 ConditionsComfort  
Time TempWeatherWind HumidityBarometerVisibility
6:20 pm
Sat, Oct 19
57 °FClear.10 mph82%29.80 "Hg10 mi
5:20 pm59 °FPassing clouds.9 mph82%29.80 "HgN/A
4:50 pm61 °FPassing clouds.12 mph72%29.77 "HgN/A
4:20 pm61 °FPassing clouds.10 mph72%29.80 "HgN/A
3:50 pm61 °FSunny.10 mph72%29.80 "Hg10 mi
3:20 pm61 °FSunny.12 mph72%29.80 "Hg10 mi
2:20 pm61 °FSunny.9 mph72%29.83 "Hg10 mi
1:50 pm61 °FPassing clouds.9 mph72%29.83 "HgN/A
1:20 pm59 °FSunny.8 mph77%29.83 "Hg10 mi
12:50 pm59 °FPassing clouds.7 mph72%29.83 "HgN/A
12:20 pm57 °FScattered clouds.8 mph77%29.83 "HgN/A
11:50 am57 °FPartly sunny.12 mph77%29.83 "HgN/A
11:20 am59 °FPassing clouds.7 mph72%29.83 "HgN/A
10:50 am55 °FPassing clouds.7 mph77%29.83 "HgN/A
10:20 am54 °FSunny.8 mph82%29.86 "Hg10 mi
9:50 am54 °FSunny.7 mph82%29.86 "Hg10 mi
9:20 am52 °FSunny.6 mph82%29.86 "Hg10 mi
8:50 am52 °FSunny.8 mph82%29.86 "Hg10 mi
8:20 am52 °FPassing clouds.7 mph82%29.86 "HgN/A
7:50 am50 °FSunny.7 mph88%29.86 "Hg10 mi
7:20 am50 °FClear.7 mph82%29.86 "Hg10 mi
6:50 am50 °FClear.7 mph82%29.86 "Hg10 mi
6:20 am48 °FPassing clouds.6 mph87%29.86 "HgN/A
5:50 am50 °FClear.6 mph82%29.86 "Hg10 mi
5:20 am50 °FClear.7 mph82%29.86 "Hg10 mi
4:50 am50 °FClear.6 mph82%29.86 "Hg10 mi
4:20 am50 °FPassing clouds.5 mph82%29.86 "HgN/A
3:50 am50 °FClear.2 mph82%29.86 "Hg10 mi
3:20 am48 °FClear.2 mph94%29.86 "Hg10 mi
2:50 am48 °FClear.2 mph94%29.86 "Hg10 mi
2:20 am48 °FClear.3 mph87%29.86 "Hg10 mi
1:50 am48 °FClear.2 mph94%29.86 "Hg10 mi
1:20 am48 °FClear.5 mph87%29.86 "Hg10 mi
12:50 am50 °FClear.6 mph82%29.86 "Hg10 mi
12:20 am48 °FClear.5 mph87%29.86 "Hg10 mi
11:50 pm
Fri, Oct 18
50 °FClear.6 mph82%29.83 "Hg10 mi
11:20 pm50 °FClear.6 mph82%29.83 "Hg10 mi
10:50 pm52 °FPassing clouds.3 mph77%29.83 "HgN/A
10:20 pm52 °FPassing clouds.7 mph82%29.83 "HgN/A
9:50 pm54 °FPassing clouds.10 mph82%29.83 "HgN/A
9:20 pm55 °FClear.9 mph88%29.80 "Hg10 mi
8:50 pm57 °FClear.12 mph88%29.80 "Hg10 mi
8:20 pm59 °FSprinkles. Passing clouds.12 mph82%29.77 "HgN/A
7:50 pm59 °FSprinkles. Passing clouds.13 mph88%29.77 "HgN/A
7:20 pm59 °FRain showers. Passing clouds.23 mph88%29.77 "Hg4 mi
Weather by CustomWeather, © 2019

See weather overview